Theta_e
323 322 321 322 324 324 330 334 335 334 333 332 327 324 320 319 321 323 327 329 329 328 327 325 323 321 319 317 316 316 316 315 315 314 313 312 312 311 311 311 311 311 311
324 324 321 324 326 326 336 336 333 330 329 329 326 323 320 319 319 318 319 320 324 325 323 322 321 320 318 316 315 315 314 314 313 312 312 311 311 310 310 310 310 310 310
327 329 328 335 336 336 334 333 331 328 325 328 324 322 320 319 318 316 315 313 315 319 319 317 317 317 317 316 314 313 313 312 312 311 311 310 310 309 309 309 309 309 309
332 333 335 334 335 335 333 330 327 324 323 322 321 322 321 320 317 313 311 309 309 309 314 314 314 314 314 314 313 312 312 311 311 310 310 309 309 309 309 308 308 308 309
335 335 334 332 332 331 327 328 323 324 319 316 317 317 321 319 315 312 308 307 305 305 305 311 311 311 311 311 311 311 310 310 310 309 309 308 308 308 308 308 308 308 308
335 335 335 333 331 328 325 325 323 321 318 316 316 311 309 307 306 305 303 305 302 303 303 302 302 306 309 307 307 308 308 308 308 308 308 307 307 307 307 307 307 307 307
334 335 334 331 331 328 326 329 324 318 312 312 307 305 305 305 304 302 300 300 300 302 301 300 300 301 303 307 306 304 305 306 307 307 306 306 306 306 306 306 306 306 306
334 332 330 329 328 325 325 323 320 314 310 311 307 303 299 301 302 301 299 299 296 298 298 299 300 301 300 298 299 301 301 304 305 305 305 305 305 305 305 305 305 305 305
333 331 330 329 325 323 322 322 318 313 309 312 309 305 299 297 298 299 297 297 296 295 295 296 297 298 300 297 296 296 298 300 302 303 303 304 304 304 304 304 305 304 305
331 329 327 325 323 322 321 320 321 315 311 309 308 312 310 302 296 294 297 295 296 296 294 295 295 296 298 295 298 298 297 297 299 300 301 302 302 303 303 303 304 304 304
328 327 325 323 320 320 319 319 319 316 311 309 308 306 308 304 301 296 291 293 295 295 295 295 295 295 297 294 292 296 297 296 296 297 298 300 300 301 302 302 302 302 302
323 324 323 321 320 319 319 318 318 316 312 310 309 307 306 306 303 299 293 291 292 293 294 294 294 293 294 290 297 299 297 295 295 295 296 297 298 299 299 300 300 300 300
318 318 319 319 318 317 317 317 315 313 312 310 309 308 307 307 307 305 298 293 292 292 293 294 294 293 295 289 295 298 297 296 295 294 294 295 296 296 297 297 298 298 298
319 318 317 317 317 316 315 314 312 312 311 310 309 308 307 306 303 303 299 295 290 291 292 291 292 292 292 289 292 301 293 297 295 294 293 293 294 295 296 296 296 296 297
321 317 316 316 315 314 313 311 311 311 311 309 309 306 305 303 301 301 301 298 294 288 290 291 289 291 291 290 292 294 290 297 295 293 294 295 295 296 296 296 296 296 296
319 316 315 313 312 311 311 310 310 310 309 309 308 306 304 301 300 301 298 299 296 294 290 292 290 290 292 293 294 292 292 299 295 293 293 294 295 297 297 297 296 295 294
317 315 314 312 311 308 309 308 306 307 308 306 306 305 302 300 299 299 297 296 296 296 291 290 291 291 289 290 291 292 292 290 291 294 294 295 295 296 296 296 295 293 293
314 311 311 309 308 309 307 307 305 305 304 302 302 302 300 301 298 297 296 295 294 294 292 289 289 289 289 290 290 289 292 293 290 294 295 295 295 295 295 295 294 293 294
313 313 311 308 310 309 305 306 303 303 303 303 301 300 299 299 297 296 296 295 294 295 292 290 288 290 289 288 288 289 289 288 293 297 295 294 294 295 295 294 295 294 294
311 311 311 309 310 308 305 304 302 300 301 301 302 301 300 299 297 296 296 293 293 292 291 290 288 288 288 288 288 286 285 287 287 292 293 293 294 295 293 294 293 294 294
311 310 308 307 306 305 301 299 299 298 299 299 300 298 295 297 296 295 295 292 291 291 290 288 288 287 286 285 284 285 284 284 285 287 287 287 287 286 286 290 291 292 293
310 307 306 307 303 302 295 295 297 298 298 298 296 292 291 293 291 291 292 291 292 291 289 288 287 285 285 285 285 284 283 281 280 287 285 284 287 284 285 286 291 292 292
305 305 304 304 303 300 294 294 294 297 297 296 294 291 291 292 290 288 288 288 288 289 290 290 287 286 284 284 284 283 282 282 281 285 285 282 285 282 285 287 290 291 292
303 303 304 304 302 302 293 294 292 296 295 295 294 292 291 288 290 288 288 288 288 288 288 291 288 288 287 286 285 285 283 283 283 285 285 278 282 281 282 285 289 291 292
304 304 304 303 301 301 293 293 292 295 295 295 295 294 291 289 290 291 288 286 285 285 286 287 287 287 286 286 284 284 281 280 277 278 284 279 278 280 280 282 285 290 290
303 303 303 303 299 300 291 292 293 296 293 293 293 293 290 290 289 289 286 285 283 283 281 280 279 281 282 283 285 283 283 278 278 277 284 278 276 279 277 280 281 284 284
Wind_Speed
6 5 4 4 4 4 4 4 7 7 8 11 10 11 11 10 10 6 6 13 15 18 19 17 17 16 16 15 15 15 15 15 15 15 15 15 15 15 16 16 16 16 16
5 5 5 4 4 4 3 5 7 8 8 8 10 11 10 9 10 9 8 10 17 15 17 16 15 15 15 15 14 15 14 14 14 14 14 14 14 14 14 14 15 16 16
7 7 5 4 3 9 8 9 9 8 8 8 10 9 8 9 9 9 7 6 9 14 13 15 14 14 14 14 14 13 13 12 12 12 12 12 12 13 13 14 14 15 15
8 5 8 7 6 7 8 8 8 7 6 7 6 7 7 7 8 6 6 5 4 4 9 14 14 13 13 13 12 12 11 11 11 11 11 12 13 13 13 14 15 16 16
7 6 7 5 7 5 6 7 4 9 7 6 7 6 6 6 5 6 6 6 6 4 4 11 12 12 12 12 11 10 10 10 10 10 11 11 12 13 13 14 15 15 16
6 6 6 6 7 7 5 7 8 5 7 6 7 6 5 5 5 5 6 7 5 5 5 5 4 5 12 12 11 10 10 10 9 10 11 11 11 12 13 13 14 15 16
7 7 4 6 6 7 6 6 5 8 4 8 6 4 4 4 4 4 4 5 6 5 6 5 4 3 4 12 11 10 9 9 9 9 10 11 11 12 13 14 14 14 15
8 7 6 5 6 5 7 7 6 4 3 5 5 4 2 4 3 3 4 4 4 3 6 6 6 5 5 4 7 10 9 8 9 9 9 10 10 12 13 13 14 14 15
7 8 7 6 6 5 6 5 6 8 7 1 10 6 3 4 2 2 1 3 5 2 3 4 5 7 7 4 6 7 9 8 9 9 11 11 11 12 13 13 13 14 15
8 7 7 7 7 5 6 5 5 5 6 6 1 2 1 7 4 1 2 1 4 4 4 2 4 5 8 4 8 9 7 6 7 8 9 10 11 12 12 13 13 14 15
8 7 7 8 7 5 6 7 5 6 4 5 4 3 2 1 3 5 3 3 1 3 4 4 4 4 6 5 4 6 6 5 5 7 8 9 11 12 12 12 13 14 15
5 7 8 7 7 6 7 6 6 7 6 5 4 5 4 4 4 4 3 2 4 3 3 4 4 4 5 5 7 9 7 4 4 6 8 9 10 11 12 13 13 14 16
4 6 7 7 6 6 7 6 7 6 6 5 6 4 4 5 3 3 4 3 4 2 2 1 3 4 5 4 5 9 7 6 5 5 6 8 9 10 11 12 13 13 15
7 7 7 7 8 7 7 6 4 4 5 3 4 3 4 4 4 3 5 6 3 1 1 4 2 3 5 4 7 12 5 9 7 3 3 4 6 8 10 10 10 11 13
9 8 8 7 7 7 8 8 4 6 6 6 6 5 4 1 2 4 3 5 7 4 4 4 3 2 4 3 3 5 5 9 9 5 1 2 5 8 9 10 9 11 12
12 11 8 5 5 6 7 8 5 5 6 4 4 7 4 3 3 4 2 4 3 5 4 3 3 4 5 3 3 3 3 4 10 7 5 3 6 8 10 10 10 8 10
12 11 9 10 8 7 6 6 6 6 6 4 3 5 5 5 4 4 2 3 3 4 5 1 3 3 3 5 2 0 2 5 4 8 7 1 6 7 8 8 6 4 10
10 11 11 6 8 7 6 6 7 6 7 5 4 5 5 3 4 4 3 4 3 4 5 8 2 2 2 2 3 2 1 4 4 8 5 4 7 8 7 7 2 7 11
12 11 11 10 9 6 7 5 6 7 7 8 8 8 7 7 6 4 4 5 3 3 4 6 4 2 2 2 2 1 1 2 3 3 5 7 7 8 8 11 8 10 15
12 11 11 12 10 8 6 6 6 6 5 3 3 1 1 4 7 6 5 5 4 5 4 4 4 3 2 1 3 2 2 1 2 2 4 5 6 5 10 10 12 14 17
10 10 9 8 8 8 6 7 7 7 7 8 6 6 4 5 7 2 4 4 6 4 4 5 3 2 2 2 2 2 1 2 2 1 3 3 3 3 4 7 8 15 17
9 9 8 9 9 6 10 10 8 7 8 9 7 6 6 10 8 10 10 8 5 6 5 4 3 4 3 4 3 3 2 2 2 1 3 4 1 3 4 4 11 14 16
9 9 9 8 8 5 10 10 10 5 5 7 8 8 5 4 5 7 8 9 9 8 3 7 6 5 4 5 5 2 1 2 2 4 3 4 2 4 3 6 12 14 15
9 9 8 7 7 6 10 11 8 6 5 6 7 8 7 7 6 7 6 6 6 5 4 3 6 6 5 6 6 4 4 1 3 3 2 2 3 4 4 4 11 12 13
7 7 8 8 7 5 9 11 9 6 6 7 7 7 7 7 9 9 7 6 5 3 6 11 12 11 12 11 6 4 2 3 2 3 1 2 3 5 4 4 5 11 17
6 5 6 5 7 5 9 12 10 4 5 4 5 6 12 9 13 12 7 7 7 6 6 4 4 5 5 5 7 3 4 3 2 3 3 1 1 0 5 4 4 7 7
Wind_Direction
170 176 177 180 180 151 176 124 120 107 94 102 103 105 89 85 85 82 77 88 98 101 98 94 91 89 84 79 76 73 70 68 64 62 58 53 48 43 39 34 32 29 26
165 182 176 175 190 181 125 127 117 108 100 111 105 99 104 100 95 93 88 75 77 81 88 91 89 89 87 83 80 73 70 65 62 59 57 53 48 43 39 35 30 26 23
179 200 169 152 146 130 129 117 108 92 92 96 101 103 112 114 114 108 100 93 89 85 94 94 91 90 89 87 82 77 72 68 64 59 54 50 46 42 36 33 29 26 22
177 152 135 139 141 119 122 118 114 109 107 107 115 115 123 121 109 100 104 106 98 95 98 103 102 96 90 85 80 76 71 64 60 54 52 46 41 36 31 28 24 21 19
152 117 138 158 113 107 108 119 115 128 118 113 113 120 135 124 133 132 138 134 129 120 106 116 112 106 99 89 78 71 66 61 55 55 50 43 38 35 28 25 21 19 16
131 128 131 122 111 116 114 122 129 121 133 126 102 79 91 119 125 123 127 129 139 135 127 114 111 109 104 89 75 63 59 55 52 53 47 43 38 33 28 23 21 15 13
112 112 125 126 117 138 154 142 124 127 67 120 99 65 52 64 95 112 116 107 127 157 147 142 145 112 103 93 79 62 54 50 49 47 45 40 37 31 25 21 17 13 10
126 129 136 134 110 122 127 130 135 109 102 149 124 99 92 349 26 78 110 126 140 125 129 157 163 151 110 102 95 74 55 48 49 44 43 40 35 30 26 21 16 11 9
142 132 154 143 121 133 138 137 138 130 151 192 160 141 133 188 124 323 104 140 124 138 135 113 124 141 145 126 91 80 66 50 41 35 32 30 27 25 23 18 16 11 7
146 140 143 138 131 141 138 144 144 141 137 160 250 235 110 143 163 174 355 270 125 147 149 190 141 110 129 141 118 102 77 64 47 37 31 29 25 26 21 19 15 12 8
145 145 137 136 131 131 145 152 152 146 153 151 158 140 169 162 124 138 181 238 329 208 143 168 175 133 137 130 119 129 109 96 64 40 32 27 24 21 22 21 14 12 8
149 148 141 145 148 147 163 167 172 165 161 161 169 167 162 173 185 152 125 147 180 238 181 178 136 145 140 152 155 148 138 145 98 57 40 33 26 24 19 15 11 9 8
142 164 144 150 152 149 158 156 162 167 166 164 171 190 181 187 176 143 118 156 151 191 174 264 188 146 151 134 147 152 165 176 148 76 53 40 31 18 15 8 3 1 3
159 155 151 150 156 153 154 150 141 148 144 162 179 162 177 178 151 134 140 138 82 109 113 173 251 145 151 161 164 173 186 189 160 119 65 42 16 6 353 347 348 346 353
154 150 150 159 155 150 143 138 160 163 168 170 173 156 132 157 119 115 134 144 143 159 196 219 155 181 152 140 159 158 202 215 171 186 196 4 2 351 343 330 332 333 342
147 141 137 130 155 144 147 146 164 168 170 168 151 152 146 147 117 83 122 154 155 135 159 169 190 154 151 137 178 136 233 162 170 201 239 298 1 340 336 333 338 340 336
147 137 137 157 170 156 142 142 150 144 146 142 138 144 158 153 137 123 118 117 142 130 132 106 123 159 133 146 169 147 146 165 197 216 238 28 348 333 329 329 1 344 334
139 144 137 170 141 168 138 147 159 151 147 165 165 148 163 139 135 150 133 140 151 151 131 142 125 146 154 175 168 165 332 168 208 225 239 18 354 329 324 324 272 328 329
147 155 152 169 172 158 162 193 151 155 163 163 172 178 177 157 152 167 140 124 102 104 108 136 148 152 139 158 88 53 136 341 313 163 27 351 332 332 339 339 337 339 335
154 159 169 169 169 169 167 166 144 153 172 127 6 40 199 155 145 149 133 131 102 111 108 113 107 125 127 144 111 124 348 327 302 348 2 309 317 343 339 337 342 338 329
158 165 157 167 162 163 159 153 155 147 126 131 145 109 83 81 94 138 129 145 125 123 146 134 137 126 147 106 158 203 164 282 303 228 316 297 292 315 324 322 324 327 323
159 154 160 176 161 167 150 155 148 149 178 164 154 117 127 111 106 103 113 119 152 148 142 146 164 161 185 154 157 159 159 65 347 311 343 298 260 290 297 302 317 316 319
147 157 160 156 175 163 161 165 174 162 158 157 142 142 147 135 126 114 98 97 86 80 138 165 166 170 158 165 141 122 179 132 210 276 37 278 291 293 274 310 308 313 315
156 155 161 170 171 185 175 182 179 163 158 159 145 155 152 160 152 148 134 121 104 66 31 110 133 146 140 136 137 159 169 174 313 297 54 266 311 283 300 296 298 304 309
144 160 157 165 172 194 190 184 171 170 160 170 155 170 153 153 162 157 143 157 131 120 64 81 99 109 118 116 129 117 114 85 318 277 272 150 294 307 313 306 299 311 319
150 146 162 168 166 183 182 183 176 156 160 161 153 169 162 167 170 172 168 168 170 191 162 122 100 97 119 139 151 154 146 138 181 338 253 10 283 231 319 300 296 305 302